DW0542 Weather Reports


Display with metric or nautical units.
time (UTC)temp
F
wind
direction
speed
MPH
gust
MPH
rain 1hr
in
rain 24hr
in
rain mn
in
humidity
%
barometer
mb
20260901093035 65 132 0.0 0.0 0.00 0.01 0.00 89 1016.7
20260901091532 65 132 0.0 0.0 0.00 0.01 0.00 89 1016.8
20260901090031 65 132 0.0 0.0 0.00 0.01 0.00 89 1016.7
20260901084531 65 132 0.0 0.0 0.00 0.01 0.00 89 1016.6
20260901083030 65 132 0.0 0.0 0.00 0.01 0.00 89 1016.5
20260901081556 65 132 0.0 0.0 0.00 0.01 0.00 89 1016.9
20260901080054 65 132 0.0 0.0 0.00 0.01 0.00 88 1017.2
20260901074551 66 132 0.0 0.0 0.00 0.01 0.00 88 1017.4
20260901073050 66 132 0.0 0.0 0.00 0.01 0.00 87 1017.3
20260901071558 66 132 0.0 0.0 0.00 0.01 0.00 87 1017.4
20260901070047 65 132 0.0 0.0 0.00 0.01 0.00 87 1017.4
20260901064545 65 132 0.0 0.0 0.00 0.01 0.00 87 1017.4
20260901063043 65 132 0.0 0.0 0.00 0.01 0.00 86 1017.4
20260901061541 66 132 0.0 0.0 0.00 0.01 0.00 86 1017.6
20260901060041 65 132 0.0 0.0 0.00 0.01 0.00 86 1017.9
20260901054538 65 132 0.0 0.0 0.00 0.01 0.00 86 1017.7
20260901053043 65 132 0.0 0.0 0.00 0.01 0.00 85 1017.7
20260901051535 65 132 0.0 0.0 0.00 0.01 0.00 85 1017.9
20260901050035 65 132 0.0 0.0 0.00 0.01 0.00 85 1018.0
20260901044506 65 132 0.0 0.0 0.00 0.01 0.00 85 1018.1
20260901043031 65 132 0.0 0.0 0.00 0.01 0.00 84 1018.2
20260901041530 65 132 0.0 0.0 0.00 0.01 0.00 84 1018.1
20260901040029 65 132 0.0 0.0 0.00 0.01 0.00 84 1018.2
20260901034532 65 132 0.0 0.0 0.00 0.01 0.00 84 1018.2
20260901031525 65 132 0.0 0.0 0.00 0.01 0.00 83 1018.4
20260901030027 65 132 0.0 0.0 0.00 0.01 0.00 82 1018.3
20260901024505 66 132 0.0 0.0 0.00 0.01 0.00 81 1018.2
20260901023043 66 132 0.0 0.0 0.00 0.01 0.00 80 1018.2
20260901021538 66 132 0.0 0.0 0.00 0.10 0.00 79 1018.2
20260901020036 67 132 0.0 0.0 0.00 0.10 0.00 78 1018.2
20260901014535 67 132 0.0 0.0 0.00 0.10 0.00 78 1018.3
20260901013033 67 132 0.0 0.0 0.00 0.10 0.00 77 1018.5
20260901011528 68 132 0.0 0.0 0.00 0.10 0.00 77 1018.4
20260901010027 68 132 0.0 0.0 0.00 0.10 0.00 77 1018.4
20260901004525 68 132 0.0 0.0 0.00 0.10 0.00 78 1018.4
20260901003024 69 133 0.0 0.0 0.00 0.10 0.00 78 1018.3
20260901001553 69 133 0.0 0.0 0.00 0.10 0.00 79 1018.2
20260901000057 70 176 0.0 3.0 0.00 0.10 0.00 79 1018.1
20260831234546 70 176 0.0 0.0 0.00 0.10 0.00 79 1018.2
20260831233042 71 177 0.0 0.0 0.00 0.10 0.00 78 1018.2
20260831231546 71 178 0.0 0.0 0.00 0.10 0.00 77 1018.2
20260831230041 72 195 0.0 0.0 0.00 0.10 0.00 75 1018.3
20260831224533 73 199 0.0 0.0 0.00 0.10 0.00 69 1018.2
20260831223032 73 199 0.0 0.0 0.00 0.10 0.00 67 1018.2
20260831221532 73 199 0.0 0.0 0.00 0.10 0.10 65 1018.4
20260831220029 74 199 0.0 0.0 0.00 0.10 0.10 66 1018.2
20260831214528 74 199 0.0 0.0 0.00 0.10 0.10 68 1018.4
20260831213029 74 199 0.0 4.0 0.00 0.10 0.10 65 1018.3
20260831211531 74 201 0.0 6.0 0.00 0.10 0.10 62 1018.4
20260831210024 74 203 0.0 5.0 0.00 0.10 0.10 61 1018.3
20260831204526 75 201 0.0 8.0 0.00 0.10 0.10 62 1018.5
20260831203053 76 179 0.0 7.0 0.00 0.10 0.10 60 1018.5
20260831201552 76 209 2.0 8.0 0.00 0.10 0.10 62 1018.3
20260831200052 75 253 0.0 4.0 0.00 0.10 0.10 61 1018.3
20260831194612 76 280 0.0 1.0 0.00 0.10 0.10 61 1018.4
20260831193046 76 282 0.0 1.0 0.00 0.10 0.10 60 1018.7
20260831191544 75 282 0.0 0.0 0.00 0.10 0.10 61 1018.8
20260831190046 75 282 0.0 0.0 0.00 0.10 0.10 60 1019.0
20260831184541 75 282 0.0 0.0 0.00 0.10 0.10 60 1019.0
20260831183041 74 282 0.0 1.0 0.00 0.10 0.10 60 1019.1
20260831181541 75 282 0.0 0.0 0.00 0.10 0.10 61 1019.3
20260831180011 74 282 0.0 1.0 0.00 0.10 0.10 59 1019.4
20260831174509 75 274 0.0 0.0 0.00 0.10 0.10 58 1019.3
20260831173004 74 274 0.0 0.0 0.00 0.10 0.10 60 1019.6
20260831171504 73 274 0.0 3.0 0.00 0.10 0.10 60 1019.5
20260831170002 73 272 0.0 4.0 0.00 0.10 0.10 63 1019.7
20260831164612 73 272 0.0 1.0 0.00 0.10 0.10 62 1019.9
20260831163102 72 285 0.0 4.0 0.00 0.10 0.10 62 1019.9
20260831161555 72 286 0.0 1.0 0.00 0.10 0.10 64 1020.1
20260831160055 71 285 0.0 1.0 0.00 0.10 0.10 66 1020.0
20260831154603 71 285 0.0 0.0 0.00 0.10 0.10 67 1020.3
20260831153049 71 286 1.0 5.0 0.00 0.10 0.10 68 1020.3
20260831151547 71 164 0.0 0.0 0.00 0.10 0.10 70 1020.3
20260831150046 70 164 0.0 0.0 0.00 0.10 0.10 69 1020.4
20260831144546 70 162 0.0 0.0 0.00 0.10 0.10 70 1020.4
20260831143052 69 179 0.0 5.0 0.00 0.10 0.10 72 1020.4
20260831141542 69 344 0.0 4.0 0.00 0.10 0.10 72 1020.4
20260831134542 68 326 0.0 1.0 0.00 0.10 0.10 72 1020.4
20260831133043 68 326 0.0 0.0 0.00 0.10 0.10 72 1020.3
20260831131548 67 326 0.0 4.0 0.00 0.10 0.10 71 1020.0
20260831130035 67 320 0.0 0.0 0.00 0.10 0.10 73 1020.1
20260831124535 67 312 0.0 6.0 0.00 0.10 0.10 77 1020.1
20260831123030 65 300 0.0 3.0 0.00 0.10 0.10 87 1020.0
20260831121530 63 299 0.0 0.0 0.00 0.10 0.10 90 1019.9
20260831120027 62 299 0.0 0.0 0.01 0.10 0.10 91 1020.0
20260831114525 62 299 0.0 2.0 0.01 0.10 0.10 91 1019.7
20260831113022 61 299 0.0 0.0 0.01 0.10 0.10 91 1019.6
20260831111518 60 299 0.0 0.0 0.01 0.10 0.10 91 1019.5
20260831110018 60 299 0.0 0.0 0.00 0.09 0.09 91 1019.3
20260831104514 60 299 0.0 0.0 0.00 0.09 0.09 91 1019.1
20260831103012 60 299 0.0 0.0 0.00 0.09 0.09 90 1019.0
20260831101511 60 299 0.0 0.0 0.00 0.09 0.09 90 1018.8
20260831100008 61 299 0.0 0.0 0.00 0.09 0.09 90 1018.9